Regional Weather Roundup
Issued by NWS

Home | Current Version | Previous Version | Graphics & Text | Print | Product List | Glossary On
Versions: 1 2 3 4 5 6 7 8 9 10 11 12 13 14 15 16 17 18 19 20 21 22 23 24 25 26 27
000
ASUS45 KCYS 231010
RWRWY

WYOMING REGIONAL WEATHER ROUNDUP
NATIONAL WEATHER SERVICE CHEYENNE WY
300 AM MST THU NOV 23 2017

NOTE:  "FAIR" INDICATES FEW OR NO CLOUDS BELOW 12,000 FEET
WITH NO SIGNIFICANT WEATHER AND/OR OBSTRUCTIONS TO VISIBILITY.

WYZ001-231100-
YELLOWSTONE NATIONAL PARK

CITY           SKY/WX    TMP DP  RH WIND       PRES   REMARKS
LK YELLOWSTONE   N/A     35  35 100 CALM      30.35F
W YELLOWSTONE  NOT AVBL

$$
WYZ002>013-054>058-071-098>099-231100-
NORTHERN WYOMING

CITY           SKY/WX    TMP DP  RH WIND       PRES   REMARKS
JACKSON        FAIR      31  30  96 N7        30.33F WCI  24
CODY           NOT AVBL
GREYBULL       FAIR      32  31  96 CALM      30.16S
WORLAND        FAIR      30  30 100 SW7       30.16S WCI  23
SHERIDAN       FAIR      49  35  58 W8        30.03F
BUFFALO        FAIR      50  30  46 W9        30.09F
GILLETTE       FAIR      51  36  56 SW18      30.05F
HULETT         FAIR      41  34  75 SW7       30.07S
NEWCASTLE      FAIR      34  32  93 CALM      30.10F

$$
WYZ014>020-022>026-101>103-231100-
CENTRAL WYOMING

CITY           SKY/WX    TMP DP  RH WIND       PRES   REMARKS
BIG PINEY      FAIR      23  22  96 CALM      30.38S FOG
PINEDALE       FAIR      27  27 100 W3        30.38F
DUBOIS         FAIR      41  32  70 NW14G26   30.28S
LANDER         FAIR      39  33  79 NW5       30.20F
RIVERTON       FAIR      44  35  70 W13       30.20F
CASPER         FAIR      46  36  68 SW13      30.21F
DOUGLAS        FAIR      42  37  82 NW3       30.17F

$$
WYZ021-027>030-104>119-231100-
SOUTHERN WYOMING

CITY           SKY/WX    TMP DP  RH WIND       PRES   REMARKS
EVANSTON       FAIR      40  37  89 SW9       30.39F WCI  34
KEMMERER       FAIR      34  32  93 N9        30.39F WCI  26
FORT BRIDGER   FAIR      45  36  69 W7        30.40F
ROCK SPRINGS   FAIR      41  35  79 SW12      30.37F
DIXON          FAIR      31  29  94 CALM      30.42F
RAWLINS        FAIR      43  37  79 W18G26    30.32F
SARATOGA       FAIR      34  34 100 SE3       30.36F
LARAMIE        FAIR      39  35  86 W6        30.31F WCI  35
CHEYENNE       FAIR      49  37  63 W16       30.25F
TORRINGTON     FAIR      40  37  89 CALM      30.15F
PINE BLUFFS    FAIR      45  36  70 MISG      30.22S

$$




USA.gov is the U.S. government's official web portal to all federal, state and local government web resources and services.